Regional Weather Roundup
Issued by NWS

Home | Current Version | Previous Version | Text Only | Print | Product List | Glossary On
Versions: 1 2 3 4 5 6 7 8 9 10 11 12 13 14 15 16 17 18 19 20 21 22 23 24 25 26 27 28 29 30 31 32 33 34 35 36 37 38 39 40 41 42 43 44 45 46 47 48 49 50
000
ASUS45 KREV 281910
RWRNV
NEVADA REGIONAL WEATHER ROUNDUP
NATIONAL WEATHER SERVICE RENO NV
1100 AM PST FRI NOV 28 2014

NOTE: "FAIR" INDICATES FEW OR NO CLOUDS BELOW 12,000 FEET WITH NO
SIGNIFICANT WEATHER AND/OR OBSTRUCTIONS TO VISIBILITY.

NVZ001-003-004-282000-
WESTERN NEVADA

CITY           SKY/WX    TMP DP  RH WIND       PRES   REMARKS
RENO           MOSUNNY   66 -18   3 W12       29.97F
CARSON CITY    FAIR      64  -9   5 SW16G28   30.01F
MINDEN         FAIR      66  -4   6 SW14G26   30.02
PYRAMID LAKE     N/A     66 N/A N/A S21         N/A
FALLON         MOSUNNY   66  11  11 S16G24    29.95F
LOVELOCK       SUNNY     59  20  22 S7        29.94F
HAWTHORNE      SUNNY     63  14  15 E10       29.97F
$$

NVZ002-CAZ072-073-282000-
NORTHERN AND CENTRAL SIERRA

CITY           SKY/WX    TMP DP  RH WIND       PRES   REMARKS
S. LAKE TAHOE  SUNNY     57  -4   8 S17G31    30.08F
TRUCKEE        MOSUNNY   55  -6   8 SW20G33   30.07S
SQUAW VLY 8000 NOT AVBL
BLUE CANYON    PTSUNNY   53   2  12 S14G23    30.10F
MAMMOTH LAKES  FAIR      59  -6   7 SW8G24    30.13F
$$

NVZ030-031-036-282000-
NORTHERN NEVADA

CITY           SKY/WX    TMP DP  RH WIND       PRES   REMARKS
ELKO           SUNNY     53  26  35 CALM      29.97F
WINNEMUCCA     SUNNY     64   8  11 S10G25    29.90F
WENDOVER       MOSUNNY   46  25  42 NE6       29.96F
$$

NVZ035-037-282000-
CENTRAL NEVADA

CITY           SKY/WX    TMP DP  RH WIND       PRES   REMARKS
ELY            MOSUNNY   57  10  15 SW8       30.08F
EUREKA           N/A     51  15  23 CALM      30.03F
$$

NVZ013-014-282000-
SOUTH CENTRAL NEVADA

CITY           SKY/WX    TMP DP  RH WIND       PRES   REMARKS
TONOPAH        MOSUNNY   52  11  19 VRB3      30.10F
$$

NVZ017-020-022-282000-
SOUTHERN NEVADA

CITY           SKY/WX    TMP DP  RH WIND       PRES   REMARKS
LAS VEGAS      MOSUNNY   60  21  22 S3        30.02F
N. LAS VEGAS   SUNNY     58  18  21 SE6       30.06F
NELLIS AFB     SUNNY     56  22  26 CALM      30.06F
HENDERSON      SUNNY     62  21  20 NE5       30.07F
MERCURY        SUNNY     62  16  16 NW5       30.05F
$$



USA.gov is the U.S. government's official web portal to all federal, state and local government web resources and services.